Regional Weather Roundup
Issued by NWS Midland/Odessa, TX

Home | Current Version | Previous Version | Text Only | Print | Product List | Glossary On
Versions: 1 2 3 4 5 6 7 8 9 10 11 12 13 14 15 16 17 18 19 20 21 22 23 24 25 26 27 28
000
ASUS44 KMAF 251010
RWRMAF
MIDLAND AREA WEATHER ROUNDUP
NATIONAL WEATHER SERVICE MIDLAND TX
500 AM CDT MON MAY 25 2015

...IN SOUTHWEST TEXAS AND SOUTHEAST NEW MEXICO...

CITY           SKY/WX    TMP DP  RH WIND       PRES   REMARKS
ALPINE         CLEAR     58  49  71 SW6       29.98R
ANDREWS        MOCLDY    67  60  75 MISG      29.87S
ARTESIA        CLOUDY    66  34  30 NW14      29.91R
BIG SPRING     CLOUDY    69  62  79 S10       29.86S
CARLSBAD       CLOUDY    71  28  20 W15       29.85R
DRYDEN           N/A     72  68  87 SE8       29.79R
FORT STOCKTON  PTCLDY    64  59  83 SW7       29.84R
GUAD PASS      CLOUDY    61  26  26 W10G21    30.01R
HOBBS          TSTM      64  52  63 S17       29.91R
MARFA          CLEAR     48  43  81 NW9       29.96R
MIDLAND AIRPK  CLOUDY    69  62  78 S3        29.85S
MIDLAND INTL   CLOUDY    66  59  78 S3        29.84S
ODESSA           N/A    N/A N/A N/A MISG      29.85F
PECOS          PTCLDY    65  55  71 CALM      29.82S
PRESIDIO       FAIR      73  18  12 W10G18    29.86R
SEMINOLE       CLOUDY    59  52  78 SW6       29.88S
SNYDER         PTCLDY    62  60  93 SW3       29.87R
WINK           CLOUDY    69  59  70 SE6       29.82R
$$
...OTHER STATIONS IN TEXAS...

CITY           SKY/WX    TMP DP  RH WIND       PRES   REMARKS
ABILENE        CLOUDY    69  66  90 S16G24    29.84R
AMARILLO       CLEAR     53  44  71 SW13      29.84S
AUSTIN         CLOUDY    72  71  97 S9        29.88F
BROWNSVILLE    CLEAR     77  74  90 SE9       29.84S
CORPUS CHRISTI PTCLDY    76  73  91 SE9       29.86R
DALLAS FTW     CLOUDY    69  69 100 S10       29.86S
DEL RIO        LGT RAIN  76  73  91 E12       29.80R
EL PASO        CLEAR     65  30  27 N5        29.94R
HOUSTON INT    PTCLDY    69  68  96 SE3       29.92S
LUBBOCK        PTCLDY    62  52  69 S13       29.86R
SAN ANGELO     PTCLDY    71  66  84 S12       29.84S
SAN ANTONIO    CLOUDY    74  70  87 SE10      29.88S
WACO           LGT RAIN  70  68  93 SE10      29.89R
WICHITA FALLS  NOT AVBL
$$
...OTHER LOCATIONS IN NEW MEXICO...

CITY           SKY/WX    TMP DP  RH WIND       PRES   REMARKS
ALAMAGORDO     CLEAR     59  34  38 N8        29.94R
ALBUQUERQUE    PTCLDY    51  47  86 CALM      29.99R
CANNON AFB     CLEAR     54  44  67 NW10      29.88F
CLOVIS         CLEAR     52  43  71 NW10      29.89F
HOLLOMAN AFB   CLEAR     53  38  55 NE7       29.92R
ROSWELL        CLOUDY    63  37  38 N3        29.89R
RUIDOSO        PTCLDY    48  32  53 W5        30.05S
SANTA FE       CLEAR     44  39  82 E3        29.99F
TRUTH OR CONSE CLEAR     54  36  50 CALM      29.97R
TUCUMCARI      PTCLDY    49  44  83 SE8       29.86R
$$


USA.gov is the U.S. government's official web portal to all federal, state and local government web resources and services.